This demonstration page uses our WeatherBlox Daily Observations layout. Learn more.

Left ArrowRight Arrow

41.55636, -103.73856

Hourly Observations for May 14, 2021

Temp ( °F °C ) Dew Point ( °F °C ) Humidity (%) Winds ( mph kmh ) Pressure ( in mb ) Visibility ( mi km ) Precip ( " mm )
12:58 am 00:58 Mostly Clear 45 7.1 42 5.3 88 88 NW 5 7 30.18 1022 10 16 N/A
1:58 am 01:58 Mostly Clear 43 6.3 41 4.8 90 90 WSW 3 6 30.18 1022 10 16 N/A
2:58 am 02:58 Mostly Cloudy 43 6.2 41 5 92 92 WSW 6 9 30.18 1022 10 16 N/A
3:58 am 03:58 Partly Cloudy 44 6.4 41 5.1 92 92 WSW 5 7 30.17 1022 10 16 N/A
4:58 am 04:58 Mostly Cloudy 44 6.6 41 5.2 91 91 W 8 13 30.16 1021 10 16 N/A
5:58 am 05:58 Mostly Sunny 43 6 41 5.2 95 95 WSW 5 7 30.17 1022 10 16 N/A
6:58 am 06:58 Mostly Sunny 45 7 42 5.8 92 92 WSW 7 11 30.09 1019 10 16 N/A
7:58 am 07:58 Partly Cloudy 50 10 44 6.9 81 81 W 7 11 30.11 1020 10 16 N/A
8:58 am 08:58 Sunny 54 12.2 45 7.2 72 72 NNW 6 9 30.10 1019 10 16 N/A
9:58 am 09:58 Mostly Cloudy 57 14.1 43 6.2 59 59 NNW 3 6 30.09 1019 10 16 N/A
10:58 am 10:58 Mostly Sunny 60 15.7 42 5.5 51 51 E 6 9 30.09 1019 10 16 N/A
11:58 am 11:58 Mostly Cloudy 62 16.5 40 4.2 44 44 E 13 20 30.08 1019 10 16 N/A
12:58 pm 12:58 Mostly Sunny 64 17.6 40 4.4 42 42 E 14 22 30.06 1018 10 16 N/A
1:58 pm 13:58 Partly Cloudy 67 19.2 41 4.8 39 39 ESE 15 24 30.04 1017 10 16 N/A
2:58 pm 14:58 Sunny 66 19.1 37 2.9 34 34 E 12 19 30.02 1017 10 16 N/A
3:58 pm 15:58 Mostly Cloudy 63 17 38 3.5 41 41 ESE 10 17 30.04 1017 10 16 N/A
4:58 pm 16:58 Mostly Cloudy 61 16 39 3.8 44 44 ENE 15 24 30.04 1017 10 16 N/A
5:58 pm 17:58 Mostly Cloudy with Light Showers 54 12.3 46 7.6 73 73 ESE 13 20 30.06 1018 10 16 0.04 1.02
6:58 pm 18:58 Mostly Cloudy 53 11.8 47 8.6 81 81 ESE 12 19 30.05 1018 10 16 N/A
7:58 pm 19:58 Mostly Cloudy with Light Showers 54 12 47 8.3 78 78 N N/A 30.08 1019 10 16 N/A
8:58 pm 20:58 Cloudy with Light Rain 52 11.3 49 9.3 88 88 N N/A 30.08 1019 10 16 0.02 0.51
9:58 pm 21:58 Mostly Cloudy 52 10.9 49 9.2 89 89 N N/A 30.06 1018 10 16 0.01 0.25
10:58 pm 22:58 Mostly Cloudy 50 10.1 48 8.8 92 92 SSW 5 7 30.06 1018 10 16 N/A
11:58 pm 23:58 Mostly Clear 51 10.7 43 6.2 74 74 N N/A 30.04 1017 10 16 N/A

Powered by AerisWeather